CZ-4C DEB, 44616

Orbit data source: Space-Track

CZ-4C DEB, 44616 is space debris in SSO originally from a launch on Sat, 31 Mar 2018 UTC launched from the Taiyaun Space Center, China (TSC). Debris objects in space refer to the collection of defunct objects orbiting the Earth. Examples of debris include non-operational satellites, rocket bodies, and fragments generated from explosions, collisions, or faulty payload assembly.

Loading next visibility...
Identifier
44616, 2018-031K
Orbit
SSO
Country
Flag of CNCN / PRC
Related business
Manufacturer
Unknown
Mission
Spacecraft
Bus & Motor
Unknown
Mass
Unknown
Launch date (UTC)
2018-03-31 (8 years ago)
Launch vehicle
Unknown
Launch site
Taiyaun Space Center, China (TSC)
Object type
Payload
Rocket body
Debris
Shape & HBR
Unknown shape, 0.1 m
Radar Cross Section
Small (<0.1 m²)

Expand to show TLE details & history
Last TLE update: 4 days ago

TLE from 4 days ago
0 CZ-4C DEB
1 44616U 18031K   25305.51283450  .00006945  00000-0  65958-3 0  9997
2 44616  97.8145  26.4382 0004491 341.2726  18.8327 14.93814224392196
Epoch: 2025-11-01T12:18Z
TLE epoch observation values (Epoch: 2025-11-01T12:18:28.900Z)
Latitude
-0.00012°
Longitude
160.77596°
Altitude
586.138 km
Speed
7.569 km/s
True Right ascension
01h 45m 45s
True Declination
0° 00' 00"
Sunlit
Object was in full shadow at epoch
Visualization orbit readout
Latitude
Unknown
Longitude
Unknown
Altitude
Unknown
Speed
Unknown
Apparent Right ascension
Unknown
Apparent Declination
Unknown
Sunlit
N/A
Visualization observer readout
Local Sidereal Time
12:53:06
Azimuth
Unknown
Elevation
Unknown
Doppler factor
Unknown
Orbital elements
Apogee altitude
586.201 km
Perigee altitude
579.948 km
Semi-major axis
6,961.211 km
Eccentricity
0.00045
Inclination
97.8145°
RAAN
26.4382°
Arg. of periapsis
341.2726°
True anomaly
18.84932°
Mean anomaly
18.8327°
Eccentric anomaly
18.84101°
Mean motion
3.73694 °/min
Orbital period
96.34 mins
BSTAR
0.00065958
Loading maneuver chart data...
Computing Atmospheric mass density...
Loading historical data...
Loading historical data...
Loading historical data...
Loading historical data...
Loading historical data...
Loading historical data...
Loading historical data...

Documentation

Showing up to 5 results
|